Flag for Russia Weather past 2 weeks in Yekaterinburg, Russia

Now
48 °F

Clear.


Feels Like: 46 °F
Forecast: 46 / 60 °F
Wind: 6 mph from West

Location: Ekaterinburg

Current Time: Jul 26, 2014 at 1:24:55 AM

Latest Report: Jul 26, 2014 at 1:00 AM


Visibility: 10 mi

Pressure: 29.65 "Hg

Humidity: 94%

Dew point: 46 °F

Location of YekaterinburgLocation

Historic Weather in Yekaterinburg — Graph

°F

Yekaterinburg temperature yesterday

Maximum temperature yesterday: 55 °F (at 2:00 PM)
Minimum temperature yesterday: 43 °F (at 3:00 AM)
Average temperature yesterday: 50 °F

Past Weeks' High & Low Weather Summary

 TemperatureHumidityPressure
High79 °F (Jul 16, 3:30 PM)100% (Jul 11, 12:30 AM)30.01 "Hg (Jul 11, 12:30 AM)
Low37 °F (Jul 18, 5:00 AM)47% (Jul 15, 3:30 PM)29.21 "Hg (Jul 23, 5:00 AM)
Average54 °F88%29.72 "Hg
* Reported Midnight between Jul 10 and Jul 11 — Midnight between Jul 25 and Jul 26, Yekaterinburg, Weather by CustomWeather, © 2014

Note: Actual official high and low records may vary slightly from our data, if they occured in-between our weather recording intervals... More about our weather records

Advertising

Yekaterinburg weather history for previous 24 hours

 ConditionsComfort  
Time TempWeatherWind HumidityBarometerVisibility
12:00 AM
Jul 26
48 °FClear.6 mph94%29.68 "Hg10 mi
11:30 PM
Jul 25
48 °FClear.6 mph94%29.68 "Hg10 mi
11:00 PM50 °FMore clouds than sun.6 mph88%29.68 "HgN/A
10:30 PM50 °FMore clouds than sun.6 mph88%29.68 "HgN/A
10:00 PM52 °FPartly sunny.10 mph82%29.71 "HgN/A
9:30 PM54 °FPartly sunny.13 mph77%29.68 "HgN/A
9:00 PM54 °FPartly sunny.13 mph77%29.68 "HgN/A
8:30 PM54 °FOvercast.13 mph77%29.68 "HgN/A
8:00 PM54 °FOvercast.15 mph77%29.68 "HgN/A
7:30 PM54 °FMostly cloudy.13 mph72%29.68 "HgN/A
7:00 PM54 °FMostly cloudy.17 mph72%29.68 "HgN/A
6:30 PM54 °FMostly cloudy.17 mph72%29.68 "HgN/A
6:00 PM54 °FMostly cloudy.15 mph77%29.68 "HgN/A
5:30 PM54 °FPartly sunny.22 mph72%29.68 "HgN/A
5:00 PM54 °FPartly sunny.22 mph72%29.68 "HgN/A
4:30 PM55 °FPartly sunny.20 mph67%29.68 "HgN/A
4:00 PM52 °FSprinkles. Partly sunny.15 mph77%29.68 "Hg4 mi
3:30 PM54 °FPartly sunny.15 mph77%29.68 "HgN/A
3:00 PM54 °FSprinkles. Partly sunny.20 mph67%29.68 "Hg4 mi
2:30 PM55 °FSprinkles. Partly sunny.20 mph59%29.65 "Hg4 mi
2:00 PM55 °FPartly sunny.15 mph59%29.65 "HgN/A
1:30 PM54 °FPassing clouds.13 mph58%29.65 "HgN/A
1:00 PM54 °FPartly sunny.17 mph63%29.65 "HgN/A
12:30 PM52 °FPartly sunny.15 mph67%29.65 "HgN/A
12:00 PM52 °FPartly sunny.15 mph67%29.65 "HgN/A
11:30 AM52 °FPartly sunny.15 mph67%29.65 "HgN/A
11:00 AM52 °FPartly sunny.15 mph72%29.65 "HgN/A
10:30 AM52 °FPartly sunny.15 mph72%29.65 "HgN/A
10:00 AM50 °FPartly sunny.13 mph76%29.65 "HgN/A
9:30 AM50 °FBroken clouds.10 mph76%29.65 "HgN/A
8:30 AM48 °FSunny.13 mph82%29.65 "Hg10 mi
8:00 AM48 °FSunny.13 mph82%29.65 "Hg10 mi
7:30 AM48 °FSunny.6 mph87%29.65 "Hg10 mi
7:00 AM46 °FSunny.6 mph87%29.65 "Hg10 mi
6:30 AM46 °FPartly cloudy.6 mph93%29.65 "HgN/A
6:00 AM48 °FPartly cloudy.8 mph87%29.65 "HgN/A
5:30 AM46 °FMostly cloudy.6 mph100%29.65 "HgN/A
5:00 AM46 °FMostly cloudy.3 mph100%29.68 "HgN/A
4:30 AM45 °FPartly cloudy.1 mph100%29.68 "HgN/A
4:00 AM45 °FPartly cloudy.No wind100%29.68 "HgN/A
3:30 AM43 °FPassing clouds.No wind100%29.68 "HgN/A
3:00 AM43 °FPassing clouds.1 mph93%29.68 "HgN/A
2:30 AM45 °FPassing clouds.No wind93%29.68 "HgN/A
2:00 AM45 °FClear.No wind93%29.68 "Hg10 mi
1:30 AM45 °FClear.1 mph100%29.68 "Hg10 mi
1:00 AM45 °FClear.No wind93%29.71 "Hg10 mi
Weather by CustomWeather, © 2014

See weather overviewHow to use our weather pages